Location: North Smoke Tower Site
(30.5430°N, 82.3390°W)
Time: 22:03:28
(UTC-04:00)

Cosmos 1980 Rocket - Visible Passes

Search period start: 29 July 2015 00:00
Search period end: 08 August 2015 00:00
Orbit: 830 x 849 km, 71.0° (Epoch: 29 July)

Date Brightness Start Highest point End Pass type
(mag) Time Alt. Az. Time Alt. Az. Time Alt. Az.
02 Aug 2.4 06:19:58 10° SSW 06:25:37 78° ESE 06:31:17 10° NNE visible
03 Aug 2.5 06:04:21 10° S 06:09:59 72° ESE 06:15:38 10° NNE visible
04 Aug 2.6 05:48:46 10° S 05:54:22 67° ESE 05:59:59 10° NNE visible
05 Aug 2.6 05:33:11 10° S 05:38:44 62° ESE 05:44:20 10° NNE visible
06 Aug 2.7 05:18:15 13° S 05:23:07 57° ESE 05:28:40 10° NNE visible
07 Aug 2.8 05:03:43 20° S 05:07:30 53° ESE 05:13:00 10° NNE visible
